MSR905 HEGN-HECA

Flight info

Callsign MSR905
Flight time N/A
Altitude 24000
Route HGD M872 SEMRU A727 CVO
Aircraft B738/M-SDE2E3FGHIRWXY/LB1

Departure

Time 2026-04-27 11:37
Airport Hurghada International Airport (HEGN)

Arrival

Time N/A
Airport Cairo International Airport (HECA)
Time Latitude Longitude Altitude Speed Heading
2026-04-27 11:22 27.18966 33.80379 58 ft 0 kts 76°
2026-04-27 11:25 27.18964 33.80368 58 ft 2 kts 76°
2026-04-27 11:25 27.18960 33.80352 58 ft 2 kts 83°
2026-04-27 11:25 27.18961 33.80335 58 ft 2 kts 103°
2026-04-27 11:26 27.18966 33.80319 58 ft 2 kts 121°
2026-04-27 11:26 27.18975 33.80306 58 ft 2 kts 139°
2026-04-27 11:26 27.18988 33.80296 58 ft 2 kts 157°
2026-04-27 11:26 27.18995 33.80294 58 ft 1 kts 168°
2026-04-27 11:27 27.18999 33.80293 58 ft 0 kts 165°
2026-04-27 11:27 27.18998 33.80293 58 ft 0 kts 165°
2026-04-27 11:28 27.18977 33.80300 58 ft 9 kts 163°
2026-04-27 11:28 27.18879 33.80330 58 ft 19 kts 165°
2026-04-27 11:28 27.18733 33.80372 58 ft 21 kts 166°
2026-04-27 11:28 27.18642 33.80385 58 ft 6 kts 213°
2026-04-27 11:29 27.18608 33.80325 58 ft 12 kts 252°
2026-04-27 11:29 27.18565 33.80217 58 ft 17 kts 260°
2026-04-27 11:29 27.18504 33.80091 58 ft 21 kts 195°
2026-04-27 11:29 27.18344 33.80118 58 ft 23 kts 172°
2026-04-27 11:30 27.18179 33.80174 58 ft 30 kts 163°
2026-04-27 11:30 27.17954 33.80241 58 ft 36 kts 167°
2026-04-27 11:30 27.17833 33.80278 58 ft 0 kts 165°
2026-04-27 11:30 27.17820 33.80282 58 ft 16 kts 164°
2026-04-27 11:31 27.17557 33.80357 58 ft 47 kts 167°
2026-04-27 11:31 27.17180 33.80468 58 ft 51 kts 161°
2026-04-27 11:31 27.16884 33.80555 58 ft 38 kts 168°
2026-04-27 11:31 27.16649 33.80624 58 ft 29 kts 166°
2026-04-27 11:32 27.16485 33.80673 58 ft 19 kts 166°
2026-04-27 11:32 27.16396 33.80699 58 ft 12 kts 166°
2026-04-27 11:32 27.16313 33.80724 58 ft 12 kts 163°
2026-04-27 11:32 27.16211 33.80756 58 ft 12 kts 162°
2026-04-27 11:33 27.16163 33.80743 58 ft 6 kts 239°
2026-04-27 11:33 27.16154 33.80719 58 ft 0 kts 251°
2026-04-27 11:34 27.16149 33.80705 58 ft 13 kts 251°
2026-04-27 11:34 27.16149 33.80607 58 ft 5 kts 345°
2026-04-27 11:34 27.16164 33.80601 58 ft 0 kts 338°
2026-04-27 11:35 27.16166 33.80600 58 ft 0 kts 338°
2026-04-27 11:35 27.16169 33.80599 58 ft 0 kts 338°
2026-04-27 11:35 27.16171 33.80598 58 ft 0 kts 338°
2026-04-27 11:35 27.16174 33.80597 58 ft 0 kts 338°
2026-04-27 11:36 27.16179 33.80595 58 ft 3 kts 339°
2026-04-27 11:36 27.16513 33.80495 58 ft 94 kts 342°
2026-04-27 11:36 27.17410 33.80231 59 ft 167 kts 344°
2026-04-27 11:36 27.18666 33.79889 532 ft 191 kts 342°
2026-04-27 11:37 27.19941 33.79493 1448 ft 189 kts 327°
2026-04-27 11:37 27.20715 33.78540 2486 ft 161 kts 281°
2026-04-27 11:37 27.20710 33.77382 3392 ft 144 kts 258°
2026-04-27 11:37 27.20413 33.76320 4019 ft 145 kts 242°
2026-04-27 11:38 27.20044 33.75293 4648 ft 146 kts 265°
2026-04-27 11:38 27.20361 33.74191 5231 ft 153 kts 301°
2026-04-27 11:38 27.20973 33.73248 5864 ft 152 kts 300°
2026-04-27 11:38 27.21592 33.72247 6411 ft 156 kts 300°
2026-04-27 11:39 27.22223 33.71271 6987 ft 159 kts 310°
2026-04-27 11:39 27.23207 33.70587 7516 ft 168 kts 330°
2026-04-27 11:39 27.24112 33.69857 8056 ft 162 kts 297°
2026-04-27 11:39 27.24427 33.68721 8560 ft 158 kts 277°
2026-04-27 11:40 27.24812 33.67564 9097 ft 164 kts 300°
2026-04-27 11:40 27.25407 33.66500 9651 ft 162 kts 294°
2026-04-27 11:40 27.25924 33.65370 10159 ft 164 kts 294°
2026-04-27 11:40 27.26469 33.64194 10541 ft 177 kts 294°
2026-04-27 11:41 27.27031 33.62979 11251 ft 169 kts 294°
2026-04-27 11:41 27.27577 33.61789 11663 ft 177 kts 294°
2026-04-27 11:41 27.28156 33.60531 12142 ft 180 kts 294°
2026-04-27 11:41 27.28735 33.59272 12631 ft 182 kts 294°
2026-04-27 11:42 27.29315 33.58010 13135 ft 183 kts 294°
2026-04-27 11:42 27.29905 33.56724 13636 ft 183 kts 294°
2026-04-27 11:42 27.30491 33.55448 14126 ft 184 kts 294°
2026-04-27 11:42 27.31076 33.54176 14602 ft 184 kts 294°
2026-04-27 11:43 27.31662 33.52899 15068 ft 185 kts 293°
2026-04-27 11:43 27.32255 33.51607 15528 ft 185 kts 293°
2026-04-27 11:43 27.32846 33.50319 15974 ft 185 kts 293°
2026-04-27 11:43 27.33445 33.49013 16416 ft 186 kts 293°
2026-04-27 11:44 27.34035 33.47725 16841 ft 186 kts 293°
2026-04-27 11:44 27.34634 33.46418 17260 ft 187 kts 293°
2026-04-27 11:44 27.35238 33.45100 17673 ft 187 kts 292°
2026-04-27 11:44 27.35838 33.43792 18072 ft 188 kts 292°
2026-04-27 11:45 27.36433 33.42491 18459 ft 188 kts 292°
2026-04-27 11:45 27.36825 33.41634 18710 ft 188 kts 292°
2026-04-27 11:45 27.37637 33.39860 19214 ft 189 kts 292°
2026-04-27 11:45 27.38248 33.38554 19576 ft 190 kts 294°
2026-04-27 11:46 27.38891 33.37257 19931 ft 190 kts 294°
2026-04-27 11:46 27.39546 33.35928 20181 ft 197 kts 294°
2026-04-27 11:46 27.40212 33.34575 20231 ft 212 kts 294°
2026-04-27 11:46 27.40966 33.33053 20320 ft 225 kts 294°
2026-04-27 11:47 27.41748 33.31476 20571 ft 231 kts 294°
2026-04-27 11:47 27.42534 33.29888 20866 ft 234 kts 294°
2026-04-27 11:47 27.43332 33.28277 21182 ft 235 kts 294°
2026-04-27 11:47 27.44142 33.26639 21496 ft 238 kts 294°
2026-04-27 11:48 27.44946 33.25005 21564 ft 255 kts 295°
2026-04-27 11:48 27.45857 33.23158 21639 ft 272 kts 295°
2026-04-27 11:48 27.46796 33.21257 21707 ft 289 kts 295°
2026-04-27 11:48 27.47797 33.19229 21763 ft 304 kts 295°
2026-04-27 11:49 27.48857 33.17080 21883 ft 316 kts 295°
2026-04-27 11:49 27.49950 33.14864 21958 ft 332 kts 295°
2026-04-27 11:49 27.51104 33.12519 22039 ft 350 kts 296°
2026-04-27 11:49 27.52296 33.10099 22102 ft 366 kts 296°
2026-04-27 11:50 27.53443 33.07771 22158 ft 381 kts 296°
2026-04-27 11:50 27.54688 33.05239 22206 ft 395 kts 296°
2026-04-27 11:50 27.56113 33.02344 22448 ft 404 kts 296°
2026-04-27 11:50 27.57469 32.99586 22801 ft 409 kts 296°
2026-04-27 11:51 27.58791 32.96898 23197 ft 412 kts 296°
2026-04-27 11:51 27.60152 32.94127 23614 ft 414 kts 297°
2026-04-27 11:52 27.64368 32.85527 23965 ft 418 kts 297°
2026-04-27 11:52 27.65760 32.82684 23966 ft 415 kts 297°
2026-04-27 11:52 27.67051 32.80046 23966 ft 415 kts 297°
2026-04-27 11:52 27.68485 32.77111 23967 ft 415 kts 297°
2026-04-27 11:53 27.69715 32.74593 23972 ft 415 kts 297°
2026-04-27 11:53 27.70925 32.72114 23979 ft 415 kts 297°
2026-04-27 11:53 27.71944 32.70026 23987 ft 415 kts 297°
2026-04-27 11:53 27.73144 32.67565 23998 ft 415 kts 297°
2026-04-27 11:54 27.74134 32.65535 24009 ft 415 kts 297°
2026-04-27 11:54 27.75443 32.62848 24026 ft 414 kts 297°
2026-04-27 11:54 27.76982 32.59685 24047 ft 414 kts 297°
2026-04-27 11:54 27.78140 32.57304 24061 ft 414 kts 297°
2026-04-27 11:55 27.80297 32.52866 24081 ft 414 kts 297°
2026-04-27 11:55 27.81593 32.50199 24090 ft 414 kts 297°
2026-04-27 11:55 27.83007 32.47284 24097 ft 414 kts 297°
2026-04-27 11:56 27.84028 32.45179 24100 ft 414 kts 297°
2026-04-27 11:56 27.86254 32.40586 24101 ft 414 kts 297°
2026-04-27 11:56 27.87481 32.38052 24101 ft 414 kts 297°
2026-04-27 11:57 27.89022 32.34868 24101 ft 414 kts 296°
2026-04-27 11:57 27.90092 32.32656 24101 ft 414 kts 296°
2026-04-27 11:57 27.91143 32.30481 24101 ft 414 kts 296°
2026-04-27 11:57 27.92355 32.27973 24101 ft 414 kts 296°
2026-04-27 11:58 27.93952 32.24663 24101 ft 413 kts 296°
2026-04-27 11:58 27.94113 32.24329 24101 ft 413 kts 296°
2026-04-27 11:58 27.94656 32.23206 24101 ft 413 kts 296°
2026-04-27 11:58 27.95903 32.20620 24101 ft 413 kts 296°
2026-04-27 11:59 27.96887 32.18578 24101 ft 413 kts 296°
2026-04-27 11:59 27.97922 32.16430 24101 ft 413 kts 296°
2026-04-27 11:59 27.99645 32.12874 24100 ft 414 kts 298°
2026-04-27 11:59 28.01171 32.10238 24101 ft 416 kts 304°
2026-04-27 12:00 28.04946 32.06062 24102 ft 424 kts 321°
2026-04-27 12:00 28.07315 32.04420 24102 ft 427 kts 328°
2026-04-27 12:00 28.09769 32.03167 24099 ft 432 kts 336°
2026-04-27 12:01 28.11685 32.02498 24103 ft 435 kts 340°
2026-04-27 12:01 28.17381 32.00776 24100 ft 435 kts 340°
2026-04-27 12:01 28.17946 32.00599 24100 ft 435 kts 340°